Regional Weather Roundup
Issued by NWS

Home | Current Version | Previous Version | Text Only | Print | Product List | Glossary On
Versions: 1 2 3 4 5 6 7 8 9 10 11 12 13 14 15 16 17 18 19 20 21 22 23 24 25 26 27 28 29 30 31 32 33 34 35 36 37 38 39 40 41 42 43 44 45 46 47 48 49 50
000
ASUS43 KMPX 282101
RWRMN
WEATHER ROUNDUP FOR MINNESOTA
NATIONAL WEATHER SERVICE TWIN CITIES/CHANHASSEN MN
300 PM CST SAT FEB 28 2015


NOTE: "FAIR" INDICATES FEW OR NO CLOUDS BELOW 12,000 FEET WITH NO
SIGNIFICANT WEATHER AND/OR OBSTRUCTIONS TO VISIBILITY. N/A MEANS
CURRENT SKY AND/OR WEATHER CONDITIONS ARE NOT AVAILABLE.

MNZ060>063-068>070-282200-
   Twin Cities Metro

CITY           SKY/WX    TMP DP  RH WIND       PRES   REMARKS
TWIN CITIES    MOSUNNY   19   3  49 S18       30.41F WCI   4
ST PAUL        SUNNY     20   4  50 S14       30.43F WCI   7
CRYSTAL        MOSUNNY   21   4  47 S13G23    30.38F WCI   9
BLAINE         MOSUNNY   25   5  42 S13G23    30.38F WCI  13
LAKEVILLE      SUNNY     16   3  57 S12       30.41F WCI   3
EDEN PRAIRIE   MOSUNNY   21   4  47 S18G24    30.38F WCI   6
SOUTH ST PAUL  SUNNY     20   6  55 S12G18    30.42F WCI   7
LAKE ELMO      FAIR      19   5  53 S15G24    30.42F WCI   5
$$
MNZ001>005-007-008-013>017-022>024-027-028-282200-
   Northwest Minnesota

CITY           SKY/WX    TMP DP  RH WIND       PRES   REMARKS
BEMIDJI        PTSUNNY   24   4  42 S14G20    30.14F WCI  11
HALLOCK        PTSUNNY   19  12  73 S18       30.09F WCI   4
ROSEAU         PTSUNNY   23  12  63 S16       30.10F WCI  10
WARROAD        MOSUNNY   25  12  58 S9G17     30.10F WCI  15
THIEF RVR FALL CLOUDY    21  16  79 S17G24    30.11F WCI   7
CROOKSTON      LGT SNOW  25  18  74 SW22      30.13F WCI  10
FOSSTON        CLOUDY    23  12  63 S21G30    30.13F WCI   8
DETROIT LAKES  MOSUNNY   25  14  63 S18G25    30.17S WCI  11
MOORHEAD       CLOUDY    25  12  58 S20G25    30.17F WCI  11
PARK RAPIDS    CLOUDY    22   7  52 S20       30.17F WCI   7
MAHNOMEN       CLOUDY    23  15  71 S25G32    30.14F WCI   7
$$
MNZ006-009>011-018-025>026-282200-
   North Central Minnesota

CITY           SKY/WX    TMP DP  RH WIND       PRES   REMARKS
BAUDETTE       CLOUDY    23   6  48 S16       30.11F WCI  10
FLAG ISLAND    MOSUNNY   16   9  73 S9        30.10F WCI   4
INTL FALLS     PTSUNNY   26   0  32 SW14G22   30.15F WCI  14
WASKISH        MOSUNNY   27   5  39 S6G23     30.15F WCI  20
BIG FORK       SUNNY     23   1  39 SW13G22   30.19F WCI  11
LONGVILLE      PTSUNNY   23   0  36 S13G23    30.22F WCI  11
GRAND RAPIDS   SUNNY     21   1  42 S22G29    30.22F WCI   5
CRANE LAKE     SUNNY     23  -6  28 S7G16     30.22F WCI  15
ORR            SUNNY     25  -6  26 S13G22    30.18F WCI  13
COOK           SUNNY     23   0  36 S10G22    30.21F WCI  12
WALKER         MOCLDY    23   2  40 S14G20    30.19F WCI  11
$$
MNZ012-019>021-037-282200-
   Northeast Minnesota

CITY           SKY/WX    TMP DP  RH WIND       PRES   REMARKS
DULUTH         SUNNY     21   1  41 SW22G30   30.27F WCI   5
ELY            SUNNY     21  -2  35 SW13G22   30.23F WCI   9
HIBBING        SUNNY     23  -2  33 SW13G22   30.23F WCI  11
EVELETH        SUNNY     23   3  42 S16G23    30.24F WCI  10
DULUTH HARBOR  SUNNY     25   3  39 S17G24    30.35F WCI  11
TWO HARBORS    SUNNY     25   7  46 S20       30.29F WCI  11
SILVER BAY     SUNNY     23   3  42 S16G23    30.29F WCI  10
GRAND MARAIS     N/A     21  12  68 SW23      30.35F WCI   5
G MARAIS ARPRT LGT SNOW  14   7  73 S13G20    30.25S WCI   0
$$
MNZ029>031-032-039>041-046>048-054>057-064-282200-
   West Central Minnesota

CITY           SKY/WX    TMP DP  RH WIND       PRES   REMARKS
FERGUS FALLS   CLOUDY    23   9  54 SW25      30.24S WCI   7
MORRIS         PTSUNNY   25  12  58 S21G26    30.22F WCI  10
ALEXANDRIA     CLOUDY    20  10  65 S15G28    30.23F WCI   6
ELBOW LAKE     CLOUDY    22  13  69 S22G31    30.21F WCI   6
WADENA         MOSUNNY   19   9  63 S15G21    30.20F WCI   5
APPLETON       PTSUNNY   25  12  58 S15G22    30.26F WCI  12
BENSON         CLOUDY    23  10  58 SW21      30.26F WCI   8
ORTONVILLE     CLOUDY    25  12  58 S16G23    30.22F WCI  12
MADISON        CLOUDY    25  12  58 S18       30.26F WCI  11
WILLMAR        FAIR      25  10  54 S7G20     30.30F WCI  17
$$
MNZ033>034-036-042>043-049>051-058-059-282200-
   Central Minnesota

CITY           SKY/WX    TMP DP  RH WIND       PRES   REMARKS
ST CLOUD       CLOUDY    21   4  47 S20       30.32F WCI   6
SAUK CENTRE    FAIR      21   9  58 S20       30.26F WCI   6
PAYNESVILLE    CLOUDY    19   7  60 SE12G23   30.29F WCI   6
AITKIN         MOSUNNY   25   3  39 S16G22    30.26F WCI  12
PINE RIVER     PTSUNNY   21   5  49 S15       30.25F WCI   8
BRAINERD       PTSUNNY   21   3  45 SW20G30   30.26F WCI   6
STAPLES        CLOUDY    21   7  53 S20       30.23F WCI   6
LONG PRAIRIE   CLOUDY    21  10  63 S20G28    30.25F WCI   6
LITTLE FALLS   SUNNY     23   3  42 S13G23    30.29F WCI  11
LITCHFIELD     SUNNY     21   9  58 S7        30.32F WCI  13
MAPLE LAKE     CLOUDY    23   9  55 S14G20    30.35F WCI  10
$$
MNZ037-044-045-052-053-282200-
   East Central Minnesota

CITY           SKY/WX    TMP DP  RH WIND       PRES   REMARKS
PRINCETON      PTSUNNY   23   5  46 S14G20    30.34F WCI  11
MORA           SUNNY     21   3  45 S17       30.35F WCI   7
CAMBRIDGE      SUNNY     23   7  50 S15       30.34F WCI  10
RUSH CITY      SUNNY     22   2  42 S13       30.36F WCI  10
MOOSE LAKE     SUNNY     23   3  42 S8G17     30.30F WCI  14
HINCKLEY       FAIR      23   5  46 S15       30.34F WCI  10
CLOQUET        SUNNY     19   0  42 S14G22    30.29F WCI   6
MCGREGOR       SUNNY     23   5  46 S15G22    30.29F WCI  10
$$
MNZ071>073-080-081-089-090-097-098-282200-
   Southwest Minnesota

CITY           SKY/WX    TMP DP  RH WIND       PRES   REMARKS
MONTEVIDEO     CLOUDY    25  12  58 SW16G24   30.28F WCI  12
GRANITE FALLS  CLOUDY    22  13  67 S20G26    30.30F WCI   8
CANBY          CLOUDY    23  12  62 S14G23    30.26F WCI  11
MARSHALL       PTSUNNY   21  10  63 SW20G29   30.29S WCI   6
REDWOOD FALLS  SUNNY     22  10  60 S20       30.31F WCI   7
OLIVIA         MOSUNNY   21  10  63 S17G23    30.30F WCI   7
PIPESTONE      FLURRIES  21  14  73 SW20      30.22F WCI   6
WINDOM         SUNNY     21  10  63 S15G21    30.29F WCI   8
WORTHINGTON    PTSUNNY   28   9  43 S20G25    30.28F WCI  15
JACKSON        PTSUNNY   21   9  58 S17       30.32S WCI   7
TRACY          MOSUNNY   23  12  64 S15G22    30.27F WCI  10
SLAYTON        CLOUDY    20  11  67 S17G26    30.26S WCI   5
$$
MNZ065>067-074>077-082>085-091>093-282200-
   South Central Minnesota

CITY           SKY/WX    TMP DP  RH WIND       PRES   REMARKS
MANKATO        CLOUDY    18   3  53 S15       30.38F WCI   3
NEW ULM        MOSUNNY   19   9  63 S16       30.35S WCI   5
ST JAMES       PTSUNNY   21  10  63 S17       30.36F WCI   7
FAIRMONT       MOSUNNY   19   9  63 S20G25    30.33F WCI   4
GLENCOE        MOSUNNY   22  10  60 S12G18    30.36F WCI  11
FARIBAULT      MOSUNNY   16   3  57 S17       30.41F WCI   0
OWATONNA       MOSUNNY   14   3  62 S14       30.40F WCI  -1
ALBERT LEA     MOSUNNY   14   5  67 S12       30.39F WCI   0
$$
MNZ078>079-086>088-094>096-282200-
   Southeast Minnesota

CITY           SKY/WX    TMP DP  RH WIND       PRES   REMARKS
ROCHESTER      SUNNY     11   1  64 S17       30.42F WCI  -6
RED WING       SUNNY     18   0  45 S12G17    30.45F WCI   5
STANTON        SUNNY     17   5  60 S14       30.42F WCI   2
DODGE CENTER   SUNNY     12   5  73 S14       30.40F WCI  -3
WINONA         SUNNY     19   1  45 SW7       30.51F WCI  10
AUSTIN         MOSUNNY   10   1  67 S9        30.42F WCI  -2
PRESTON        SUNNY     11  -1  56 S12       30.45F WCI  -3
$$
ABBREVIATIONS USED IN REMARKS
   TC - TEMPERATURES IN CELSIUS
  WCI - WIND CHILL INDEX
   HX - HEAT INDEX
  VSB - VISIBILITY
$$


USA.gov is the U.S. government's official web portal to all federal, state and local government web resources and services.